Flag for Norway Weather past 2 weeks in Melhus, Norway

Now
55 °F

Scattered showers. Partly sunny.


Feels Like: 54 °F
Forecast: 45 / 52 °F
Wind: 7 mph from Southeast

Location: Trondheim / Vaernes

Current Time: May 30, 2015 at 9:46:01 PM

Latest Report: May 30, 2015 at 8:50 PM


Visibility: N/A

Pressure: 29.59 "Hg

Humidity: 59%

Dew point: 41 °F

Location of MelhusLocation

Historic Weather in Melhus — Graph

°F

Melhus temperature yesterday

Maximum temperature yesterday: 52 °F (at 12:50 AM)
Minimum temperature yesterday: 45 °F (at 4:50 PM)
Average temperature yesterday: 47 °F

Past Weeks' High & Low Weather Summary

 TemperatureHumidityPressure
High61 °F (May 28, 12:50 PM)100% (May 18, 4:50 AM)29.98 "Hg (May 18, 4:50 AM)
Low36 °F (May 16, 1:50 AM)33% (May 18, 4:20 PM)29.39 "Hg (May 29, 4:20 AM)
Average48 °F71%29.72 "Hg
* Reported May 15 8:20 PM — May 30 8:20 PM, Melhus, Weather by CustomWeather, © 2015

Note: Actual official high and low records may vary slightly from our data, if they occured in-between our weather recording intervals... More about our weather records

Advertising

Melhus weather history for previous 24 hours

 ConditionsComfort  
Time TempWeatherWind HumidityBarometerVisibility
8:20 PM
Sat, May 30
55 °FDrizzle. Partly sunny.8 mph63%29.59 "HgN/A
7:50 PM57 °FSunny.7 mph59%29.59 "Hg10 mi
7:20 PM59 °FPassing clouds.3 mph45%29.59 "HgN/A
6:50 PM59 °FSunny.1 mph45%29.59 "Hg10 mi
6:20 PM59 °FBroken clouds.5 mph45%29.62 "HgN/A
5:50 PM59 °FPartly sunny.6 mph48%29.62 "HgN/A
5:20 PM59 °FPartly sunny.6 mph48%29.62 "HgN/A
4:50 PM59 °FScattered showers. Partly sunny.10 mph48%29.62 "HgN/A
4:20 PM59 °FSunny.8 mph48%29.62 "Hg10 mi
3:50 PM59 °FPartly sunny.8 mph45%29.62 "HgN/A
3:20 PM57 °FSunny.10 mph48%29.62 "Hg10 mi
2:50 PM59 °FSunny.7 mph45%29.62 "Hg10 mi
2:20 PM59 °FSunny.12 mph45%29.62 "Hg10 mi
1:50 PM59 °FPassing clouds.9 mph45%29.62 "HgN/A
1:20 PM59 °FPassing clouds.9 mph39%29.62 "HgN/A
12:50 PM59 °FPassing clouds.9 mph42%29.62 "HgN/A
12:20 PM57 °FScattered clouds.7 mph48%29.62 "HgN/A
11:50 AM57 °FScattered clouds.9 mph48%29.62 "HgN/A
11:20 AM55 °FPassing clouds.9 mph51%29.65 "HgN/A
10:50 AM55 °FPassing clouds.3 mph55%29.65 "HgN/A
10:20 AM52 °FPassing clouds.2 mph58%29.65 "HgN/A
9:50 AM52 °FPassing clouds.3 mph67%29.62 "HgN/A
9:20 AM52 °FPassing clouds.3 mph62%29.62 "HgN/A
8:50 AM50 °FSunny.5 mph71%29.62 "Hg10 mi
8:20 AM46 °FSunny.5 mph82%29.62 "Hg10 mi
7:50 AM46 °FSunny.6 mph82%29.62 "Hg10 mi
7:20 AM43 °FSunny.7 mph81%29.62 "Hg10 mi
6:50 AM41 °FSunny.8 mph87%29.62 "Hg10 mi
6:20 AM41 °FSunny.8 mph87%29.62 "Hg10 mi
5:50 AM39 °FSunny.7 mph93%29.62 "Hg10 mi
5:20 AM39 °FSunny.8 mph87%29.62 "Hg10 mi
4:50 AM37 °FSunny.8 mph93%29.62 "Hg10 mi
3:50 AM37 °FClear.8 mph100%29.62 "Hg10 mi
2:50 AM39 °FClear.8 mph93%29.59 "Hg10 mi
1:50 AM41 °FPassing clouds.7 mph93%29.59 "HgN/A
1:20 AM43 °FPassing clouds.6 mph93%29.59 "HgN/A
12:50 AM43 °FPassing clouds.6 mph93%29.59 "HgN/A
12:20 AM45 °FPassing clouds.7 mph87%29.59 "HgN/A
11:50 PM
Fri, May 29
45 °FScattered clouds.3 mph81%29.56 "HgN/A
11:20 PM46 °FScattered clouds.6 mph82%29.56 "HgN/A
10:50 PM46 °FScattered clouds.5 mph82%29.56 "HgN/A
10:20 PM46 °FPassing clouds.3 mph76%29.56 "HgN/A
9:50 PM48 °FBroken clouds.6 mph76%29.56 "HgN/A
9:20 PM48 °FBroken clouds.7 mph76%29.53 "HgN/A
Weather by CustomWeather, © 2015

See weather overviewHow to use our weather pages